Starlink 30318

operational
NORAD ID: 57711 Int'l Des: 2023-129 Owner: SPXS Country: US Constellation: starlink
LEOCIRCULAR

Über Starlink 30318

Beschreibung wird geladen...

Live-Position

3D-Globus wird geladen...

Nächste Überflüge

Höhenverlauf

Altitude vs Time

uPlot chart will show altitude changes over time

Zweizeiliger Elementsatz

1 57711U 23129P 25303.54177128 .00000375 00000-0 42828-4 0 9999
2 57711 43.0049 107.7374 0001491 265.1500 94.9172 15.02538728120934
Epoch: 30. Okt. 2025 • Age: 19 hours

Aktueller Status

Höhe 569.8 km
Geschwindigkeit 7.58 km/s
Subsatellitenpunkt -39.15°S, 170.83°W
Startdatum 27. Aug. 2023
Alter 2.1 years
Typ internet

Technische Details

Klassifizierung Payload
Masse 730.00 kg
Trockenmasse 700.00 kg
Gesamtmasse 730.00 kg
Länge 0.30 m
Durchmesser 4.10 m
Spannweite 29.00 m
Form Box + pan
Hersteller SPXS
Bus-Typ Starlink V2M
Phasenstatus In Orbit
Besitzer/Staat SPXS/US

Große Konstellationen

Loading constellations...